Location: Unspecified
(0.0000°N, 0.0000°E)
Time: 00:30:12
(UTC+01:00)

GPS 2-15 Rocket1 - Visible Passes

Search period start: 18 January 2017 00:00
Search period end: 28 January 2017 00:00
Orbit: 625 x 676 km, 19.8° (Epoch: 17 January)

Date Brightness Start Highest point End Pass type
(mag) Time Alt. Az. Time Alt. Az. Time Alt. Az.
18 Jan 6.1 04:24:48 11° SSE 04:24:48 11° SSE 04:25:11 10° SSE visible
19 Jan 5.8 04:49:27 12° S 04:49:27 12° S 04:50:27 10° SSE visible
22 Jan 5.2 20:05:37 10° N 20:07:25 12° NNE 20:08:31 11° NNE visible
23 Jan 4.8 20:30:42 10° NNW 20:33:37 19° N 20:33:37 19° N visible
24 Jan 4.7 20:56:21 10° NW 20:58:48 24° NNW 20:58:48 24° NNW visible
25 Jan 4.7 19:39:14 10° NNW 19:42:43 20° NNE 19:46:16 10° ENE visible
25 Jan 5.2 21:22:21 10° WNW 21:24:02 21° NW 21:24:02 21° NW visible
26 Jan 5.9 06:09:57 10° S 06:11:30 11° SSE 06:13:02 10° SSE visible
26 Jan 3.9 20:04:55 10° NW 20:09:15 35° NNE 20:11:39 22° ENE visible
26 Jan 5.9 21:48:44 10° WNW 21:49:20 14° WNW 21:49:20 14° WNW visible
27 Jan 5.7 06:34:57 10° SSW 06:38:14 18° SSE 06:41:30 10° ESE visible
27 Jan 3.1 20:30:58 10° WNW 20:35:41 67° NNE 20:36:59 45° E visible
